Погода в Вперёд

Россия / Республика Дагестан     43°53′56″N   46°42′46″E
темп.,
°C
ветер,
м/с
пор.,
м/с
влажн.,
%
обл.,
%
осадки,
мм/ч
давл.,
гПа
погр.,
м
29 июня, ср
ср2900:00+22з464952 0.0 101181
03:00+21з3455100 0.0 101059
06:00+23сз46429 0.0 1011240
09:00+30зсз4428100 0.0 10111302
12:00+34сз43205 0.0 10102387
15:00+33ссв86252 0.0 10092348
18:00+27всв6653100 0.0 1010594
21:00+21в3684100 0.0 1012146
30 июня, чт
чт3000:00+20вюв228888 0.0 101216
03:00+20всв33854 0.0 101346
06:00+23в35619 0.0 1013312
09:00+29в44295 0.0 10121442
12:00+32всв742721 0.0 10112442
15:00+31всв86301 0.0 10112018
18:00+26в77415 0.0 10111075
21:00+21вюв49623 0.0 1012227
1 июля, пт
пт100:00+19вюв3766100 0.0 1011147
03:00+19в356139 0.0 101178
06:00+22вюв465142 0.0 1011300
09:00+27вюв4530100 0.0 10111597
12:00+28в442796 0.0 10112004
15:00+30св6325100 0.0 10102449
18:00+27св5528100 0.0 1010838
21:00+23ююз3538100 0.0 1012136
2 июля, сб
сб200:00+19зюз4758100 0.0 1012147
03:00+20з2358100 0.0 101148
06:00+23сз5847100 0.0 1012469
09:00+26с77414 0.0 10131577
12:00+28с68260 0.0 10142394
15:00+29ссз78210 0.0 10132775
18:00+27ссз67180 0.0 10152406
21:00+20с45320 0.0 101654
3 июля, вс
вс300:00+19юз223597 0.0 101621
03:00+18з23370 0.0 101616
06:00+21зсз23320 0.0 1017145
09:00+27ссз45220 0.0 10172320
12:00+30ссв53204 0.0 10162890
15:00+30св76214 0.0 10152809
18:00+26в65270 0.0 10171230
21:00+19ююв48510 0.0 1018127